Burlington, IA

12:25 AM CDT on August 24, 2017 (GMT -0500)
Burlington Regional

Weather History for KBRL - November, 2014

Change the Weather History Date:

Sunday, November 16, 2014

  Actual Average Record
Temperature  
Mean Temperature 21 °F 42 °F  
Max Temperature 30 °F 51 °F 75 °F (1952)
Min Temperature 12 °F 33 °F 2 °F (1959)
Degree Days  
Heating Degree Days 44 23  
Month to date heating degree days 434 306  
Since 1 July heating degree days 883 700  
Cooling Degree Days 0 0  
Month to date cooling degree days 0 0  
Year to date cooling degree days 940 1206  
Moisture  
Dew Point 20 °F    
Average Humidity 84    
Maximum Humidity 92    
Minimum Humidity 76    
Precipitation  
Precipitation T in 0.08 in 0.61 in (1962)
Month to date precipitation 0.27 1.37  
Year to date precipitation 38.61 35.26  
Sea Level Pressure  
Sea Level Pressure 30.08 in    
Wind  
Wind Speed 6 mph (WSW)    
Max Wind Speed 12 mph    
Max Gust Speed 15 mph    
Visibility 7 miles    
Events Snow    
T = Trace of Precipitation, MM = Missing Value Source: NWS Daily Summary

Daily Weather History Graph

Daily Weather History Graph

Search for Another Location

Airport or City:

Trip Planner

Search our weather history database for the weather conditions in past years. The results will help you decide how hot, cold, wet, or windy it might be!

Date:

Astronomy

Nov. 16, 2014 Rise Set
Actual Time 6:52 AM CST 4:45 PM CST
Civil Twilight 6:23 AM CST 5:14 PM CST
Nautical Twilight 5:50 AM CST 5:48 PM CST
Astronomical Twilight 5:17 AM CST 6:20 PM CST
Moon 12:57 AM CST (11/16) 1:41 PM CST (11/16)
Length of Visible Light 10h 51m
Length of Day
9h 52m
Waning Crescent, 31% of the Moon is Illuminated
Nov 16
Waning Crescent
Nov 22
New
Nov 29
First Quarter
Dec 6
Full
Dec 14
Last Quarter

Hourly Weather History & Observations

Time (CST) Temp. Windchill Dew Point Humidity Pressure Visibility Wind Dir Wind Speed Gust Speed Precip Events Conditions
12:53 AM 25.0 °F 18.1 °F 21.9 °F 88% 30.18 in 8.0 mi South 5.8 mph - N/A   Overcast
1:53 AM 25.0 °F 19.3 °F 23.0 °F 92% 30.17 in 8.0 mi South 4.6 mph - N/A   Overcast
2:53 AM 26.1 °F 21.9 °F 24.1 °F 92% 30.17 in 7.0 mi SSW 3.5 mph - 0.00 in   Overcast
3:53 AM 27.0 °F 23.0 °F 25.0 °F 92% 30.16 in 6.0 mi South 3.5 mph - 0.00 in   Overcast
4:53 AM 27.0 °F 19.5 °F 25.0 °F 92% 30.14 in 5.0 mi South 6.9 mph - N/A   Overcast
5:53 AM 28.0 °F 21.7 °F 26.1 °F 92% 30.13 in 4.0 mi SSW 5.8 mph - 0.00 in Snow Light Snow
6:53 AM 28.0 °F 21.7 °F 26.1 °F 92% 30.10 in 6.0 mi SSW 5.8 mph - 0.00 in   Overcast
7:21 AM 28.0 °F 20.8 °F 26.1 °F 92% 30.08 in 5.0 mi SW 6.9 mph - N/A   Overcast
7:53 AM 28.0 °F 20.8 °F 25.0 °F 88% 30.12 in 7.0 mi WSW 6.9 mph - N/A   Overcast
8:25 AM 28.0 °F 20.8 °F 25.0 °F 88% 30.10 in 6.0 mi WSW 6.9 mph - N/A   Overcast
8:53 AM 28.0 °F 20.8 °F 26.1 °F 92% 30.13 in 4.0 mi WSW 6.9 mph - N/A   Overcast
9:53 AM 28.9 °F 21.1 °F 25.0 °F 85% 30.12 in 7.0 mi NW 8.1 mph - N/A   Overcast
10:53 AM 28.9 °F 25.2 °F 25.0 °F 85% 30.11 in 7.0 mi West 3.5 mph - N/A   Overcast
11:34 AM 30.0 °F 22.4 °F 23.0 °F 75% 30.06 in 8.0 mi WNW 8.1 mph - N/A   Overcast
11:53 AM 28.9 °F 21.1 °F 23.0 °F 78% 30.08 in 8.0 mi West 8.1 mph - N/A   Overcast
12:48 PM 28.4 °F 19.7 °F 24.8 °F 86% 30.04 in 5.0 mi WNW 9.2 mph - N/A   Overcast
12:53 PM 28.0 °F 18.1 °F 24.1 °F 85% 30.07 in 5.0 mi WNW 11.5 mph - N/A   Overcast
1:53 PM 26.6 °F 16.8 °F 21.2 °F 80% 30.04 in 5.0 mi WNW 10.4 mph - N/A   Overcast
2:53 PM 25.0 °F 17.1 °F 19.9 °F 81% 30.06 in 5.0 mi WNW 6.9 mph - N/A   Haze
3:53 PM 24.1 °F 14.4 °F 19.0 °F 81% 30.05 in 4.0 mi West 9.2 mph - N/A   Haze
4:53 PM 21.9 °F 13.4 °F 17.1 °F 82% 30.05 in 6.0 mi WSW 6.9 mph - N/A   Haze
5:10 PM 19.9 °F 13.4 °F 16.0 °F 85% 30.02 in 8.0 mi WSW 4.6 mph - N/A   Scattered Clouds
5:53 PM 19.0 °F 13.9 °F 16.0 °F 88% 30.06 in 7.0 mi West 3.5 mph - N/A   Clear
6:45 PM 18.0 °F 11.1 °F 15.1 °F 88% 30.03 in 7.0 mi WSW 4.6 mph - N/A   Mostly Cloudy
6:53 PM 17.1 °F 8.7 °F 14.0 °F 88% 30.06 in 7.0 mi WSW 5.8 mph - N/A   Mostly Cloudy
7:15 PM 18.0 °F 9.8 °F 14.0 °F 84% 30.03 in 8.0 mi West 5.8 mph - N/A   Scattered Clouds
7:53 PM 17.1 °F 8.7 °F 12.9 °F 84% 30.05 in 9.0 mi West 5.8 mph - N/A   Clear
8:53 PM 16.0 °F 6.3 °F 10.0 °F 77% 30.04 in 10.0 mi West 6.9 mph - N/A   Clear
9:53 PM 14.0 °F 5.1 °F 8.1 °F 77% 30.04 in 10.0 mi West 5.8 mph - N/A   Clear
10:53 PM 12.0 °F 1.5 °F 7.0 °F 80% 30.04 in 10.0 mi WSW 6.9 mph - N/A   Clear
11:53 PM 12.9 °F 3.8 °F 7.0 °F 77% 30.03 in 10.0 mi West 5.8 mph - N/A   Clear